{"data":{"norad_id":46059,"epoch":"2026-05-25T05:14:37.042656Z","epoch_age_seconds":53191,"freshness":"FRESH","line1":"1 46059U 20055AJ  26145.21848429  .00000013  00000+0  12171-4 0  9991","line2":"2 46059  53.1595 117.9783 0001001  90.4587 269.6529 15.31704443320753","mean_motion":15.31704443,"eccentricity":0.0001001,"inclination_deg":53.1595,"raan_deg":117.9783,"arg_perigee_deg":90.4587,"mean_anomaly_deg":269.6529,"bstar":1.2171e-5,"rev_number":32075,"period_min":94.01291525796,"perigee_km":470.04117964439,"apogee_km":471.41232216732,"semimajor_km":6848.8637509059,"source":"CELESTRAK","updated_at":"2026-05-25T13:38:16.462578Z"}}